User: anonymous   Login
Location: Unspecified
(0.0000°N, 0.0000°E)
Time: 01:10:24
(UTC+00:00)
Language:

USA 229 - Orbit

View from above orbital plane
View from above orbital plane
View from above satellite
View from above satellite

Ground track
Ground track

The orbit data is extracted from the following two-line orbital elements,

1 37386U 11014A   17262.80637788 0.00000000  00000-0  00000-0 0    02
2 37386  63.4363 135.6420 0076000   3.2740 356.7260 13.40736161    05
Epoch (UTC): 19 September 2017 19:21:11
Eccentricity: 0.0076000
inclination: 63.4363°
perigee height: 1049 km
apogee height: 1163 km
right ascension of ascending node: 135.6420°
argument of perigee: 3.2740°
revolutions per day: 13.40736161
mean anomaly at epoch: 356.7260°
orbit number at epoch: 0

The dashed part of the orbit path shows where the satellite is in the earth's shadow,  

DLR